Regional Weather Roundup
Issued by NWS

Home | Current Version | Previous Version | Graphics & Text | Print | Product List | Glossary On
Versions: 1 2 3 4 5 6 7 8 9 10 11 12 13 14 15 16 17 18 19 20 21 22 23 24 25 26 27 28 29 30 31 32 33 34 35 36 37 38 39 40 41 42 43 44 45 46 47 48 49 50
000
ASUS43 KDTX 032010
RWRMI
MICHIGAN HOURLY REGIONAL WEATHER ROUNDUP
NATIONAL WEATHER SERVICE DETROIT/PONTIAC MI
ISSUED BY NATIONAL WEATHER SERVICE GRAND RAPIDS MI
300 PM EST SAT DEC 03 2016

NOTE: "FAIR" INDICATES FEW OR NO CLOUDS BELOW 12,000 FEET WITH NO
SIGNIFICANT WEATHER AND/OR OBSTRUCTION TO VISIBILITY.

MIZ047>049-052>055-059>063-066>070-074>076-081>083-032100-
SOUTHEAST LOWER MICHIGAN

CITY           SKY/WX    TMP DP  RH WIND       PRES   REMARKS
ADRIAN         CLOUDY    36  28  73 W7        30.32R WCI  30
ALMA           CLOUDY    38  30  72 W8        30.28S WCI  32
ANN ARBOR      CLOUDY    36  29  75 SW7       30.29S WCI  30
BAD AXE        CLOUDY    38  33  83 W10       30.26R WCI  31
DETROIT CITY   CLOUDY    39  30  70 NW7       30.29R WCI  34
DETROIT        CLOUDY    38  28  67 W12       30.31R WCI  30
FLINT          CLOUDY    38  30  73 SW9       30.30R WCI  31
GROSSE ILE     CLOUDY    38  29  72 W9        30.29S WCI  31
HILLSDALE      CLOUDY    34  27  75 W5        30.28S WCI  30
HOWELL         CLOUDY    36  30  78 W7        30.27F WCI  30

CITY           SKY/WX    TMP DP  RH WIND       PRES   REMARKS
JACKSON        CLOUDY    36  28  73 W5        30.29F WCI  32
LANSING        CLOUDY    37  28  70 W8        30.29R WCI  31
MASON          CLOUDY    36  31  81 W3        30.28F
MONROE         CLOUDY    37  30  75 W8        30.31R WCI  31
MT. CLEMENS    CLOUDY    40  31  69 W7        30.26R
PONTIAC        CLOUDY    37  28  70 W7        30.27R WCI  32
PORT HOPE        N/A     41  32  70 VRB6      30.23R
PORT HURON     CLOUDY    39  32  75 W7        30.28R WCI  34
TRI CITIES     CLOUDY    39  32  76 W12       30.28R WCI  32
YPSILANTI      CLOUDY    38  29  70 W10       30.30S WCI  31
$$
MIZ043>046-050>051-056>058-064>065-071>073-077>080-032100-
SOUTHWEST LOWER MICHIGAN

CITY           SKY/WX    TMP DP  RH WIND       PRES   REMARKS
BATTLE CREEK   CLOUDY    36  29  75 SW7       30.30S WCI  30
BENTON HARBOR  CLOUDY    37  26  64 W8        30.32S WCI  31
BIG RAPIDS     CLOUDY    38  29  72 W9        30.26S WCI  31
COLDWATER      CLOUDY    37  26  66 W6        30.30S WCI  32
HOLLAND        CLOUDY    37  28  70 SW7       30.30S WCI  32
GRAND RAPIDS   CLOUDY    36  28  73 W5        30.30R WCI  32
KALAMAZOO      CLOUDY    37  26  64 W9        30.31S WCI  30
MARSHALL       CLOUDY    36  29  76 SW6       30.29S WCI  31
MOUNT PLEASANT CLOUDY    39  30  72 W6        30.26S WCI  34
MUSKEGON       CLOUDY    37  26  64 W5        30.31R WCI  33
STURGIS        CLOUDY    37  25  62 W6        30.30S WCI  32
$$
MIZ016>042-032100-
NORTHERN LOWER MICHIGAN

CITY           SKY/WX    TMP DP  RH WIND       PRES   REMARKS
ALPENA         CLOUDY    40  28  62 NW7       30.23R
BEAVER ISLAND  CLOUDY    38  32  78 N3        30.23S
BELLAIRE       FLURRIES  37  35  94 CALM      30.24S
CADILLAC       CLOUDY    34  32  90 SW9       30.23R WCI  27
CHARLEVOIX     CLOUDY    39  31  72 N7        30.26R WCI  34
GAYLORD        CLOUDY    36  32  85 W3        30.20R
HOUGHTON LAKE  CLOUDY    37  31  78 W8        30.24R WCI  31
MANISTEE       CLOUDY    37  31  78 SW8       30.28R WCI  31
OSCODA         CLOUDY    43  29  59 NW3       30.23R
PELLSTON       CLOUDY    39  29  67 N8        30.23R WCI  33
TRAVERSE CITY  LGT RAIN  38  35  89 CALM      30.24R
LUDINGTON      CLOUDY    36  31  82 W7        30.28S WCI  30
$$
MIZ007>008-015-032100-
EASTERN UPPER MICHIGAN

CITY           SKY/WX    TMP DP  RH WIND       PRES   REMARKS
KINROSS        CLOUDY    34  32  92 NW6       30.22R WCI  29
MACKINAC ISLAN CLOUDY    38  29  69 W7        30.22R WCI  33
NEWBERRY       CLOUDY    35  32  88 N7        30.21S WCI  29
S. S. MARIE    MOSUNNY   38  32  79 NW5       30.20S WCI  34
$$
MIZ004>006-011>014-085-032100-
CENTRAL UPPER MICHIGAN

CITY           SKY/WX    TMP DP  RH WIND       PRES   REMARKS
MANISTIQUE     CLOUDY    38  31  74 NW5       30.23R WCI  35
ESCANABA       CLOUDY    37  28  70 W3        30.25R
MENOMINEE      CLOUDY    35  27  72 W6        30.28R WCI  30
SAWYER-GWINN   CLOUDY    34  23  64 W3        30.21S
$$
MIZ001>003-009>011-084-032100-
WESTERN UPPER MICHIGAN

CITY           SKY/WX    TMP DP  RH WIND       PRES   REMARKS
IRON MOUNTAIN  CLOUDY    34  24  67 CALM      30.22R
HOUGHTON       CLOUDY    33  29  85 SW5       30.21R WCI  29
COPPER HARBOR    N/A     36  29  75 CALM      30.23R
IRONWOOD       CLOUDY    31  26  82 SW6       30.24R WCI  25
$$

ABBREVIATIONS USED IN REMARKS
   TC - TEMPERATURE IN CELSIUS
  WCI - WIND CHILL INDEX
   HX - HEAT INDEX
  VSB - VISIBILITY




USA.gov is the U.S. government's official web portal to all federal, state and local government web resources and services.